Flight Track Log - Related Links

Times and Time Zones

All times are in EDT time to prevent confusion due to time zone crossing. See the DLH204 flight status page for this flight to view local times or setup timezone preferences in your user account.

Time Position Orientation Groundspeed Altitude Reporting Facility
EDT Latitude Longitude Course Direction KTS MPH feet Rate Location/Type
Sat 12:36:39 AM 50.0430 8.5800 250° West 22 25  Level FlightAware ADS-B
Sat 12:38:20 AM 50.0390 8.5650 247° West 24 28 209 Level FlightAware ADS-B
Sat 12:38:40 AM 50.0380 8.5620 243° Southwest 23 26 307 Level FlightAware ADS-B
Sat 12:39:20 AM 50.0370 8.5560 255° West 24 28 338 Level FlightAware ADS-B
Sat 12:41:00 AM 50.0874 8.7691 70° East  Level Estimated
Sat 12:41:25 AM 50.0360 8.5610 70° East 135 155  Level FlightAware ADS-B
Sat 12:41:55 AM 50.0430 8.5910 70° East 136 157 1,100 2,182 Climbing FlightAware ADS-B
Sat 12:42:20 AM 50.0490 8.6160 69° East 153 176 2,000 1,821 Climbing FlightAware ADS-B
Sat 12:42:51 AM 50.0570 8.6530 71° East 209 241 2,800 1,527 Climbing FlightAware ADS-B
Sat 12:43:15 AM 50.0650 8.6920 72° East 255 293 3,400 2,308 Climbing FlightAware ADS-B
Sat 12:43:30 AM 50.0680 8.7190 80° East 261 300 4,300 3,733 Climbing FlightAware ADS-B
Sat 12:44:00 AM 50.0630 8.7740 98° East 267 307 6,200 3,600 Climbing FlightAware ADS-B
Sat 12:44:30 AM 50.0560 8.8340 100° East 278 320 7,900 2,897 Climbing FlightAware ADS-B
Sat 12:45:27 AM 50.0560 8.9140 90° East 280 322 10,400 2,529 Climbing FlightAware ADS-B
Sat 12:46:12 AM 50.0580 9.0440 89° East 347 399 12,200 2,552 Climbing FlightAware ADS-B
Sat 12:46:54 AM 50.0650 9.1420 84° East 363 418 14,100 3,169 Climbing FlightAware ADS-B
Sat 12:47:41 AM 50.0800 9.2860 81° East 384 442 16,900 3,388 Climbing FlightAware ADS-B
Sat 12:48:19 AM 50.0910 9.3930 81° East 392 451 18,900 3,083 Climbing FlightAware ADS-B
Sat 12:48:53 AM 50.1010 9.4900 81° East 396 456 20,600 2,368 Climbing FlightAware ADS-B
Sat 12:49:35 AM 50.1130 9.6080 81° East 391 450 21,900 1,537 Climbing FlightAware ADS-B
Sat 12:50:15 AM 50.1230 9.7170 82° East 390 449 22,700 846 Climbing FlightAware ADS-B
Sat 12:50:53 AM 50.1340 9.8200 81° East 389 448 23,000 220 Climbing FlightAware ADS-B
Sat 12:51:37 AM 50.1450 9.9420 82° East 387 445 23,000  Level FlightAware ADS-B
Sat 12:52:19 AM 50.1570 10.0610 81° East 387 445 23,000  Level FlightAware ADS-B
Sat 12:52:59 AM 50.1670 10.1710 82° East 391 450 23,000  Level FlightAware ADS-B
Sat 12:53:43 AM 50.1790 10.2950 81° East 392 451 23,000  Level FlightAware ADS-B
Sat 12:54:23 AM 50.1890 10.4070 82° East 390 449 23,000  Level FlightAware ADS-B
Sat 12:55:01 AM 50.1980 10.5050 82° East 390 449 23,000  Level FlightAware ADS-B
Sat 12:55:37 AM 50.2070 10.6050 82° East 390 449 23,000  Level FlightAware ADS-B
Sat 12:56:23 AM 50.2190 10.7400 82° East 390 449 23,000  Level FlightAware ADS-B
Sat 12:57:04 AM 50.2300 10.8560 82° East 389 448 23,000  Level FlightAware ADS-B
Sat 12:57:39 AM 50.2380 10.9480 82° East 389 448 23,000  Level FlightAware ADS-B
Sat 12:58:22 AM 50.2480 11.0690 83° East 390 449 23,000  Level FlightAware ADS-B
Sat 12:59:06 AM 50.2590 11.1950 82° East 391 450 23,000  Level FlightAware ADS-B
Sat 12:59:38 AM 50.2660 11.2820 83° East 391 450 23,000  Level FlightAware ADS-B
Sat 01:00:22 AM 50.2770 11.4060 82° East 392 451 23,000  Level FlightAware ADS-B
Sat 01:01:00 AM 50.2890 11.5090 80° East 390 449 23,000  Level FlightAware ADS-B
Sat 01:01:22 AM 50.3090 11.5660 61° Northeast 389 448 23,000  Level FlightAware ADS-B
Sat 01:02:02 AM 50.3520 11.6550 53° Northeast 389 448 23,000  Level FlightAware ADS-B
Sat 01:02:42 AM 50.3940 11.7450 54° Northeast 389 448 23,000  Level FlightAware ADS-B
Sat 01:03:26 AM 50.4420 11.8470 54° Northeast 389 448 23,000  Level FlightAware ADS-B
Sat 01:04:06 AM 50.4840 11.9370 54° Northeast 389 448 23,000  Level FlightAware ADS-B
Sat 01:04:50 AM 50.5270 12.0390 56° Northeast 390 449 23,000  Level FlightAware ADS-B
Sat 01:05:32 AM 50.5620 12.1490 63° Northeast 392 451 23,000 -308 Level FlightAware ADS-B
Sat 01:06:08 AM 50.5900 12.2400 64° Northeast 392 451 22,600 -1,421 Descending FlightAware ADS-B
Sat 01:06:48 AM 50.6220 12.3430 64° Northeast 389 448 21,200 -2,077 Descending FlightAware ADS-B
Sat 01:07:26 AM 50.6510 12.4390 64° Northeast 390 449 19,900 -2,071 Descending FlightAware ADS-B
Sat 01:08:12 AM 50.6880 12.5580 64° Northeast 381 438 18,300 -2,163 Descending FlightAware ADS-B
Sat 01:08:52 AM 50.7170 12.6540 64° Northeast 372 428 16,800 -2,286 Descending FlightAware ADS-B
Sat 01:09:36 AM 50.7500 12.7620 64° Northeast 364 419 15,100 -2,372 Descending FlightAware ADS-B
Sat 01:10:18 AM 50.7790 12.8580 64° Northeast 356 410 13,400 -2,475 Descending FlightAware ADS-B
Sat 01:10:56 AM 50.8070 12.9500 64° Northeast 340 391 11,800 -2,516 Descending FlightAware ADS-B
Sat 01:11:20 AM 50.8230 13.0050 65° Northeast 335 386 10,800 -2,250 Descending FlightAware ADS-B
Sat 01:11:52 AM 50.8440 13.0730 64° Northeast 325 374 9,700 -1,400 Descending FlightAware ADS-B
Sat 01:12:20 AM 50.8610 13.1310 65° Northeast 296 341 9,400 -964 Descending FlightAware ADS-B
Sat 01:12:48 AM 50.8770 13.1840 64° Northeast 284 327 8,800 -1,333 Descending FlightAware ADS-B
Sat 01:13:14 AM 50.8910 13.2330 66° East 277 319 8,200 -1,650 Descending FlightAware ADS-B
Sat 01:13:28 AM 50.8980 13.2580 66° East 278 320 7,700 -1,895 Descending FlightAware ADS-B
Sat 01:13:52 AM 50.9120 13.3030 64° Northeast 279 321 7,000 -1,667 Descending FlightAware ADS-B
Sat 01:14:22 AM 50.9290 13.3580 64° Northeast 265 305 6,200 -1,600 Descending FlightAware ADS-B
Sat 01:14:37 AM 50.9360 13.3840 67° East 260 299 5,800 -1,350 Descending FlightAware ADS-B
Sat 01:15:02 AM 50.9460 13.4250 69° East 249 287 5,300 -1,920 Descending FlightAware ADS-B
Sat 01:15:27 AM 50.9550 13.4720 73° East 257 296 4,200 -1,800 Descending FlightAware ADS-B
Sat 01:15:52 AM 50.9620 13.5170 76° East 236 272 3,800 -900 Descending FlightAware ADS-B
Sat 01:16:07 AM 50.9700 13.5380 59° Northeast 221 254 3,600 -1,200 Descending FlightAware ADS-B
Sat 01:16:37 AM 50.9920 13.5700 42° Northeast 221 254 2,900 -1,200 Descending FlightAware ADS-B
Sat 01:16:47 AM 50.9960 13.5770 48° Northeast 220 253 2,800 -400 Descending FlightAware ADS-B
Sat 01:17:37 AM 51.0320 13.6260 41° Northeast 201 231 2,500 -632 Descending FlightAware ADS-B
Sat 01:18:22 AM 51.0590 13.6630 41° Northeast 148 170 1,800 -943 Descending FlightAware ADS-B
Sat 01:18:47 AM 51.0720 13.6800 39° Northeast 121 139 1,400 -655 Descending FlightAware ADS-B
Sat 01:19:17 AM 51.0840 13.6970 42° Northeast 126 145 1,200 -600 Descending FlightAware ADS-B
Sat 01:19:47 AM 51.0970 13.7150 41° Northeast 121 139 800 -800 Descending FlightAware ADS-B
Sat 01:22:00 AM 51.1328 13.7672 42° Northeast  Level Estimated
Sat 01:23:00 AM 51.1328 13.7672 168° South  Level Estimated
Sat 01:24:00 AM 51.1328 13.7672 168° South  Level Estimated
Sat 01:25:00 AM 51.1328 13.7672 168° South  Level Estimated
Sat 01:26:00 AM 51.1328 13.7672 168° South  Level Estimated
Sat 01:27:00 AM 51.1328 13.7672 168° South  Level Estimated
Sat 01:28:00 AM 51.1328 13.7672 168° South  Level Estimated
Sat 01:29:00 AM 51.1328 13.7672 168° South  Level Estimated
Sat 01:30:00 AM 51.1328 13.7672 168° South  Level Estimated
Sat 01:31:00 AM 51.1328 13.7672 168° South  Level Estimated
Sat 01:32:00 AM 51.1328 13.7672 168° South  Level Estimated
Sat 01:33:00 AM 51.1328 13.7672 168° South  Level Estimated

Login

Don't have an account? Register now (free) for customized features, flight alerts, and more!